FW6253 Weather Reports


Display with metric or nautical units.
time (UTC)temp
F
wind
direction
speed
MPH
gust
MPH
rain 1hr
in
rain 24hr
in
rain mn
in
humidity
%
barometer
mb
20260831003554 93 140 2.0 12.0 0.00 0.00 0.00 51 1011.8
20260831003104 93 171 3.0 9.0 0.00 0.00 0.00 49 1011.7
20260831002552 94 135 3.0 9.0 0.00 0.00 0.00 49 1011.8
20260831002052 94 116 3.0 9.0 0.00 0.00 0.00 48 1011.7
20260831001602 95 159 2.0 7.0 0.00 0.00 0.00 48 1011.7
20260831001052 95 0 2.0 7.0 0.00 0.00 0.00 47 1011.6
20260831000553 96 88 1.0 9.0 0.00 0.00 0.00 47 1011.8
20260831000109 96 112 2.0 10.0 0.00 0.00 0.00 46 1011.8
20260830235555 96 76 4.0 10.0 0.00 0.00 0.00 45 1011.7
20260830235052 97 82 4.0 10.0 0.00 0.00 0.00 45 1011.6
20260830234605 97 67 3.0 9.0 0.00 0.00 0.00 45 1011.7
20260830234052 97 76 3.0 10.0 0.00 0.00 0.00 44 1011.7
20260830233554 97 94 3.0 10.0 0.00 0.00 0.00 44 1011.6
20260830233058 97 87 3.0 10.0 0.00 0.00 0.00 44 1011.6
20260830232556 97 113 1.0 5.0 0.00 0.00 0.00 44 1011.7
20260830232053 96 88 1.0 5.0 0.00 0.00 0.00 45 1011.7
20260830231556 96 0 0.0 8.0 0.00 0.00 0.00 46 1011.7
20260830231052 96 128 2.0 9.0 0.00 0.00 0.00 44 1011.8
20260830230552 97 136 2.0 9.0 0.00 0.00 0.00 43 1011.9
20260830230105 98 120 4.0 10.0 0.00 0.00 0.00 42 1011.8
20260830225551 98 128 3.0 10.0 0.00 0.00 0.00 42 1011.9
20260830225052 98 161 2.0 8.0 0.00 0.00 0.00 43 1011.9
20260830224557 98 135 4.0 8.0 0.00 0.00 0.00 42 1011.9
20260830224052 99 156 3.0 9.0 0.00 0.00 0.00 42 1011.9
20260830223552 99 148 3.0 9.0 0.00 0.00 0.00 42 1012.0
20260830223059 99 184 2.0 9.0 0.00 0.00 0.00 42 1011.9
20260830222550 99 139 2.0 9.0 0.00 0.00 0.00 41 1012.0
20260830222055 99 116 2.0 7.0 0.00 0.00 0.00 43 1012.0
20260830221609 99 163 2.0 10.0 0.00 0.00 0.00 42 1012.1
20260830221055 99 78 2.0 10.0 0.00 0.00 0.00 42 1012.0
20260830220552 99 70 2.0 8.0 0.00 0.00 0.00 43 1012.0
20260830220112 99 84 1.0 8.0 0.00 0.00 0.00 42 1012.0
20260830215552 99 100 2.0 10.0 0.00 0.00 0.00 42 1012.0
20260830215053 99 109 2.0 10.0 0.00 0.00 0.00 43 1012.1
20260830214626 99 117 4.0 11.0 0.00 0.00 0.00 43 1012.2
20260830214051 99 101 4.0 11.0 0.00 0.00 0.00 43 1012.3
20260830213553 99 74 1.0 8.0 0.00 0.00 0.00 43 1012.2
20260830213105 99 107 2.0 8.0 0.00 0.00 0.00 43 1012.3
20260830212554 99 106 3.0 8.0 0.00 0.00 0.00 43 1012.6
20260830212056 100 134 1.0 7.0 0.00 0.00 0.00 44 1012.5
20260830211601 99 109 2.0 7.0 0.00 0.00 0.00 43 1012.7
20260830211051 99 101 2.0 8.0 0.00 0.00 0.00 43 1012.8
20260830210552 99 165 2.0 11.0 0.00 0.00 0.00 44 1013.0
20260830210105 98 123 3.0 11.0 0.00 0.00 0.00 43 1013.0
20260830205554 98 117 3.0 11.0 0.00 0.00 0.00 46 1013.0
20260830205051 98 86 2.0 10.0 0.00 0.00 0.00 44 1013.0
20260830204601 98 125 5.0 10.0 0.00 0.00 0.00 45 1013.1
20260830204058 98 117 3.0 10.0 0.00 0.00 0.00 45 1013.2
20260830203556 97 148 2.0 10.0 0.00 0.00 0.00 47 1013.3
20260830203059 97 220 5.0 10.0 0.00 0.00 0.00 45 1013.4
20260830202557 98 217 3.0 11.0 0.00 0.00 0.00 45 1013.5
20260830202055 98 190 2.0 11.0 0.00 0.00 0.00 45 1013.6
20260830201602 98 119 4.0 11.0 0.00 0.00 0.00 46 1013.7
20260830201054 98 168 4.0 10.0 0.00 0.00 0.00 45 1013.8
20260830200554 98 167 2.0 10.0 0.00 0.00 0.00 47 1013.9
20260830200109 97 208 3.0 9.0 0.00 0.00 0.00 48 1014.0
20260830195554 97 112 4.0 11.0 0.00 0.00 0.00 47 1014.1
20260830195055 96 209 3.0 11.0 0.00 0.00 0.00 49 1014.1
20260830194608 96 148 3.0 11.0 0.00 0.00 0.00 49 1014.2
20260830194054 97 121 3.0 8.0 0.00 0.00 0.00 47 1014.2
20260830193553 96 117 3.0 9.0 0.00 0.00 0.00 49 1014.4
20260830193130 95 112 2.0 9.0 0.00 0.00 0.00 51 1014.5
20260830192553 95 135 2.0 9.0 0.00 0.00 0.00 50 1014.4
20260830192053 96 171 2.0 9.0 0.00 0.00 0.00 49 1014.5
20260830191604 96 170 4.0 10.0 0.00 0.00 0.00 49 1014.7
20260830191058 96 130 4.0 10.0 0.00 0.00 0.00 51 1014.6
20260830190551 95 156 2.0 8.0 0.00 0.00 0.00 52 1014.8
20260830190113 95 100 1.0 6.0 0.00 0.00 0.00 52 1014.9
20260830185554 95 0 1.0 7.0 0.00 0.00 0.00 52 1014.9
20260830185054 95 196 2.0 7.0 0.00 0.00 0.00 52 1015.1
20260830184604 93 196 1.0 8.0 0.00 0.00 0.00 54 1015.2
20260830184051 93 155 2.0 8.0 0.00 0.00 0.00 53 1015.2
20260830183553 93 144 1.0 8.0 0.00 0.00 0.00 54 1015.3
20260830183105 93 177 3.0 10.0 0.00 0.00 0.00 53 1015.4
20260830182552 94 200 3.0 10.0 0.00 0.00 0.00 54 1015.5
20260830182053 93 40 1.0 10.0 0.00 0.00 0.00 55 1015.5
20260830181609 92 144 2.0 13.0 0.00 0.00 0.00 55 1015.6
20260830181052 92 122 4.0 13.0 0.00 0.00 0.00 55 1015.7
20260830180550 92 191 3.0 9.0 0.00 0.00 0.00 57 1015.7
20260830175551 92 220 4.0 9.0 0.00 0.00 0.00 55 1015.9
20260830175052 93 128 3.0 9.0 0.00 0.00 0.00 56 1016.0
20260830174617 93 177 4.0 9.0 0.00 0.00 0.00 56 1016.0
20260830174052 92 151 2.0 8.0 0.00 0.00 0.00 59 1016.1
20260830173551 91 107 1.0 6.0 0.00 0.00 0.00 59 1016.1
20260830173113 91 130 2.0 10.0 0.00 0.00 0.00 60 1016.2
20260830172552 90 130 3.0 10.0 0.00 0.00 0.00 60 1016.2
20260830172051 90 131 3.0 10.0 0.00 0.00 0.00 61 1016.4
20260830171604 90 192 4.0 9.0 0.00 0.00 0.00 61 1016.4
20260830171049 89 153 1.0 7.0 0.00 0.00 0.00 63 1016.5
20260830170548 89 180 3.0 7.0 0.00 0.00 0.00 63 1016.5
20260830170110 89 207 2.0 8.0 0.00 0.00 0.00 63 1016.5
20260830165551 89 0 2.0 9.0 0.00 0.00 0.00 64 1016.5
20260830165052 89 144 3.0 10.0 0.00 0.00 0.00 65 1016.7
20260830164559 88 223 2.0 10.0 0.00 0.00 0.00 66 1016.6
20260830164052 88 213 4.0 9.0 0.00 0.00 0.00 64 1016.7
20260830163553 88 198 2.0 10.0 0.00 0.00 0.00 68 1016.6
20260830163057 87 157 2.0 10.0 0.00 0.00 0.00 69 1016.7
20260830162551 86 209 4.0 10.0 0.00 0.00 0.00 70 1016.6
20260830162051 86 251 2.0 10.0 0.00 0.00 0.00 71 1016.7
20260830161559 86 291 2.0 11.0 0.00 0.00 0.00 70 1016.6
20260830161051 85 200 3.0 11.0 0.00 0.00 0.00 70 1016.7
20260830160551 85 143 3.0 11.0 0.00 0.00 0.00 71 1016.7
20260830160104 85 311 5.0 12.0 0.00 0.00 0.00 72 1016.7
20260830155551 86 235 5.0 12.0 0.00 0.00 0.00 72 1016.7
20260830155051 86 290 3.0 8.0 0.00 0.00 0.00 72 1016.6
20260830154604 85 300 3.0 10.0 0.00 0.00 0.00 73 1016.6
20260830154051 85 202 4.0 10.0 0.00 0.00 0.00 72 1016.7
20260830153552 85 211 6.0 10.0 0.00 0.00 0.00 72 1016.6
20260830153102 85 209 3.0 10.0 0.00 0.00 0.00 75 1016.6
20260830152551 84 209 5.0 10.0 0.00 0.00 0.00 77 1016.7
20260830152054 84 13 3.0 9.0 0.00 0.00 0.00 78 1016.5
20260830151609 83 268 3.0 6.0 0.00 0.00 0.00 79 1016.6
20260830151053 83 175 1.0 6.0 0.00 0.00 0.00 80 1016.6
20260830150555 82 150 3.0 6.0 0.00 0.00 0.00 81 1016.6
20260830150110 82 215 2.0 10.0 0.00 0.00 0.00 82 1016.6
20260830145554 81 131 4.0 10.0 0.00 0.00 0.00 82 1016.7
20260830145054 81 201 2.0 9.0 0.00 0.00 0.00 83 1016.6
20260830144611 81 224 3.0 12.0 0.00 0.00 0.00 83 1016.6
20260830144054 80 236 5.0 12.0 0.00 0.00 0.00 84 1016.7
20260830143557 80 205 4.0 9.0 0.00 0.00 0.00 84 1016.6
20260830143104 80 240 3.0 9.0 0.00 0.00 0.00 85 1016.6
20260830142557 79 279 4.0 10.0 0.00 0.00 0.00 85 1016.6
20260830142052 79 203 3.0 10.0 0.00 0.00 0.00 85 1016.6
20260830141606 79 233 5.0 11.0 0.00 0.00 0.00 86 1016.5
20260830141057 79 200 4.0 11.0 0.00 0.00 0.00 87 1016.4
20260830140554 79 200 4.0 11.0 0.00 0.00 0.00 87 1016.4
20260830140104 78 236 6.0 11.0 0.00 0.00 0.00 88 1016.5
20260830135551 79 252 3.0 9.0 0.00 0.00 0.00 90 1016.4
20260830135054 78 0 3.0 8.0 0.00 0.00 0.00 91 1016.4
20260830134614 78 215 3.0 8.0 0.00 0.00 0.00 91 1016.4
20260830134054 78 208 4.0 10.0 0.00 0.00 0.00 91 1016.3
20260830133553 77 235 3.0 10.0 0.00 0.00 0.00 91 1016.3
20260830133116 77 174 3.0 9.0 0.00 0.00 0.00 91 1016.3
20260830132551 77 173 4.0 9.0 0.00 0.00 0.00 91 1016.1
20260830132053 77 203 4.0 8.0 0.00 0.00 0.00 91 1016.2
20260830131608 77 189 2.0 8.0 0.00 0.00 0.00 91 1016.2
20260830131054 77 190 3.0 8.0 0.00 0.00 0.00 91 1016.2
20260830130554 77 220 2.0 6.0 0.00 0.00 0.00 91 1016.1
20260830130110 77 208 2.0 6.0 0.00 0.00 0.00 91 1016.1
20260830125553 76 207 2.0 9.0 0.00 0.00 0.00 91 1016.2
20260830125053 76 223 3.0 9.0 0.00 0.00 0.00 91 1016.1
20260830124607 76 194 3.0 7.0 0.00 0.00 0.00 91 1016.0
20260830124053 76 186 3.0 9.0 0.00 0.00 0.00 91 1015.8
20260830123556 76 199 4.0 9.0 0.00 0.00 0.00 91 1015.8
20260830123110 76 190 2.0 8.0 0.00 0.00 0.00 91 1015.7
20260830122553 76 223 3.0 8.0 0.00 0.00 0.00 91 1015.6
20260830122058 76 198 3.0 8.0 0.00 0.00 0.00 91 1015.7
20260830121607 76 199 3.0 8.0 0.00 0.00 0.00 91 1015.6
20260830121054 76 234 3.0 7.0 0.00 0.00 0.00 91 1015.6
20260830120553 76 209 3.0 10.0 0.00 0.00 0.00 91 1015.5
20260830120104 76 208 4.0 10.0 0.00 0.00 0.00 91 1015.4
20260830115553 76 187 4.0 11.0 0.00 0.00 0.00 91 1015.5
20260830115051 77 232 4.0 11.0 0.00 0.00 0.00 91 1015.4
20260830114613 77 239 4.0 11.0 0.00 0.00 0.00 91 1015.4
20260830114050 77 211 5.0 11.0 0.00 0.00 0.00 91 1015.5
20260830113552 76 216 4.0 9.0 0.00 0.00 0.00 91 1015.5
20260830113059 77 225 4.0 10.0 0.00 0.00 0.00 91 1015.5
20260830112554 76 173 4.0 10.0 0.00 0.00 0.00 91 1015.5
20260830112054 76 227 5.0 10.0 0.00 0.00 0.00 91 1015.5
20260830111601 76 227 4.0 10.0 0.00 0.00 0.00 91 1015.6
20260830111055 76 232 4.0 11.0 0.00 0.00 0.00 91 1015.6
20260830110554 77 208 5.0 11.0 0.00 0.00 0.00 91 1015.5
20260830110105 76 223 4.0 9.0 0.00 0.00 0.00 91 1015.5
20260830105551 76 198 4.0 7.0 0.00 0.00 0.00 91 1015.4
20260830105051 76 209 2.0 8.0 0.00 0.00 0.00 91 1015.4
20260830104616 76 192 3.0 8.0 0.00 0.00 0.00 91 1015.3
20260830104053 76 222 3.0 8.0 0.00 0.00 0.00 91 1015.4
20260830103554 76 200 2.0 8.0 0.00 0.00 0.00 91 1015.5
20260830103119 76 206 2.0 7.0 0.00 0.00 0.00 90 1015.5
20260830102553 76 189 2.0 6.0 0.00 0.00 0.00 90 1015.4
20260830102053 76 205 2.0 6.0 0.00 0.00 0.00 90 1015.4
20260830101555 76 203 2.0 5.0 0.00 0.00 0.00 90 1015.4
20260830101054 76 201 2.0 5.0 0.00 0.00 0.00 90 1015.5
20260830100552 76 200 2.0 5.0 0.00 0.00 0.00 90 1015.3
20260830100110 76 196 2.0 5.0 0.00 0.00 0.00 89 1015.3
20260830095551 76 187 2.0 6.0 0.00 0.01 0.00 89 1015.3
20260830095053 76 185 2.0 6.0 0.00 0.01 0.00 89 1015.3
20260830094559 76 183 3.0 6.0 0.00 0.01 0.00 89 1015.4
20260830094054 76 203 2.0 5.0 0.00 0.01 0.00 89 1015.4
20260830093551 76 175 2.0 5.0 0.00 0.01 0.00 88 1015.4
20260830093107 76 175 1.0 4.0 0.00 0.01 0.00 88 1015.5
20260830092554 76 175 1.0 4.0 0.00 0.01 0.00 88 1015.3
20260830092053 76 175 1.0 4.0 0.00 0.01 0.00 88 1015.3
20260830091602 76 175 1.0 6.0 0.00 0.01 0.00 87 1015.3
20260830091053 76 175 1.0 6.0 0.00 0.01 0.00 87 1015.5
20260830090554 76 0 2.0 5.0 0.00 0.01 0.00 87 1015.5
20260830090101 76 170 1.0 5.0 0.00 0.01 0.00 87 1015.5
20260830085553 76 171 1.0 5.0 0.00 0.01 0.00 86 1015.4
20260830085054 76 0 1.0 4.0 0.00 0.01 0.00 86 1015.5
20260830084609 76 176 0.0 4.0 0.00 0.01 0.00 86 1015.6
20260830084054 76 176 0.0 5.0 0.00 0.01 0.00 86 1015.5
20260830083553 76 180 1.0 5.0 0.00 0.01 0.00 86 1015.5
20260830083059 76 177 1.0 5.0 0.00 0.01 0.00 85 1015.4
20260830082554 76 176 1.0 4.0 0.00 0.01 0.00 85 1015.6
20260830082055 77 0 2.0 6.0 0.00 0.01 0.00 85 1015.6
20260830081605 77 177 2.0 6.0 0.00 0.01 0.00 84 1015.7
20260830081053 77 175 1.0 4.0 0.00 0.01 0.00 84 1015.6
20260830080555 77 175 0.0 3.0 0.00 0.01 0.00 84 1015.5
20260830080123 77 176 1.0 3.0 0.00 0.01 0.00 83 1015.5
20260830075554 77 0 1.0 5.0 0.00 0.01 0.00 83 1015.6
20260830075051 77 175 1.0 6.0 0.00 0.01 0.00 83 1015.8
20260830074602 77 175 2.0 6.0 0.00 0.01 0.00 83 1015.7
20260830074057 77 178 2.0 7.0 0.00 0.01 0.00 82 1015.7
20260830073553 77 177 2.0 7.0 0.00 0.01 0.00 82 1015.7
20260830073103 78 172 2.0 6.0 0.00 0.01 0.00 82 1015.7
20260830072554 78 167 2.0 6.0 0.00 0.01 0.00 81 1015.9
20260830072054 78 166 2.0 6.0 0.00 0.01 0.00 81 1015.9
20260830071622 78 0 3.0 6.0 0.00 0.01 0.00 81 1015.8
20260830071054 78 167 1.0 5.0 0.00 0.01 0.00 80 1015.9
20260830070557 78 177 1.0 5.0 0.00 0.01 0.00 80 1015.8
20260830070105 78 186 1.0 5.0 0.00 0.01 0.00 80 1015.9
20260830065553 79 151 0.0 6.0 0.00 0.01 0.00 79 1015.9
20260830065051 79 167 1.0 7.0 0.00 0.01 0.00 79 1015.8
20260830064602 79 133 1.0 7.0 0.00 0.01 0.00 79 1015.9
20260830064054 79 172 0.0 7.0 0.00 0.01 0.00 78 1015.9
20260830063554 79 201 1.0 7.0 0.00 0.01 0.00 78 1015.9
20260830063109 79 0 1.0 7.0 0.00 0.01 0.00 78 1015.9
20260830062554 79 168 1.0 7.0 0.00 0.01 0.00 77 1015.9
20260830062053 79 148 1.0 7.0 0.00 0.01 0.00 77 1015.9
20260830061603 80 154 2.0 7.0 0.00 0.01 0.00 77 1015.9
20260830061051 80 124 2.0 10.0 0.00 0.01 0.00 76 1015.9
20260830060553 80 161 2.0 10.0 0.00 0.01 0.00 76 1015.9
20260830060057 80 157 1.0 5.0 0.00 0.01 0.00 76 1015.8
20260830055555 80 144 1.0 5.0 0.00 0.01 0.00 75 1015.9
20260830055051 80 134 1.0 7.0 0.00 0.01 0.00 75 1015.8
20260830054605 80 152 1.0 7.0 0.00 0.01 0.00 75 1015.8
20260830054054 80 178 2.0 6.0 0.00 0.01 0.00 75 1015.8
20260830053553 80 140 1.0 6.0 0.00 0.01 0.00 74 1015.9
20260830053100 81 159 1.0 6.0 0.00 0.01 0.00 74 1015.9
20260830052552 81 134 2.0 11.0 0.00 0.01 0.00 74 1015.8
20260830052057 81 172 2.0 11.0 0.00 0.01 0.00 74 1015.7
20260830051557 81 155 2.0 9.0 0.00 0.01 0.00 73 1015.7
20260830051053 81 180 2.0 8.0 0.00 0.01 0.00 73 1015.7
20260830050554 81 171 2.0 8.0 0.00 0.01 0.00 72 1015.8
20260830050120 82 163 3.0 9.0 0.00 0.01 0.00 72 1015.7
20260830045554 82 140 2.0 9.0 0.00 0.01 0.01 71 1015.7
20260830045055 82 219 1.0 6.0 0.00 0.01 0.01 71 1015.8
20260830044644 82 165 2.0 6.0 0.00 0.01 0.01 70 1015.8
20260830044052 82 164 1.0 8.0 0.00 0.01 0.01 70 1015.9
20260830043555 83 0 2.0 8.0 0.00 0.01 0.01 69 1015.9
20260830043100 83 206 1.0 7.0 0.00 0.01 0.01 69 1015.8
20260830042552 83 0 1.0 8.0 0.00 0.01 0.01 68 1015.8
20260830042053 83 152 2.0 8.0 0.00 0.01 0.01 68 1015.9
20260830041609 83 178 2.0 8.0 0.00 0.01 0.01 67 1015.9
20260830041054 84 204 3.0 8.0 0.00 0.01 0.01 67 1015.8
20260830040553 84 155 2.0 6.0 0.00 0.01 0.01 66 1015.7
20260830040115 84 0 1.0 8.0 0.00 0.01 0.01 66 1015.7
20260830035552 84 157 1.0 8.0 0.00 0.01 0.01 66 1015.5
20260830035052 84 155 2.0 8.0 0.00 0.01 0.01 65 1015.4
20260830034602 85 157 2.0 6.0 0.00 0.01 0.01 65 1015.4
20260830034054 85 152 1.0 6.0 0.00 0.01 0.01 65 1015.4
20260830033554 85 170 3.0 8.0 0.00 0.01 0.01 65 1015.4
20260830033110 85 153 2.0 8.0 0.00 0.01 0.01 64 1015.5
20260830032553 85 142 2.0 11.0 0.00 0.01 0.01 64 1015.4
20260830032053 86 149 2.0 11.0 0.00 0.01 0.01 64 1015.4
20260830031629 86 242 3.0 11.0 0.00 0.01 0.01 63 1015.3
20260830031053 86 126 2.0 10.0 0.00 0.01 0.01 63 1015.1
20260830030553 86 165 4.0 13.0 0.00 0.01 0.01 63 1015.1
20260830030104 87 192 3.0 13.0 0.00 0.01 0.01 62 1015.0
20260830025552 87 196 4.0 15.0 0.00 0.06 0.01 62 1014.9
20260830025052 87 172 5.0 15.0 0.00 0.06 0.01 62 1014.9
20260830024637 87 207 5.0 13.0 0.00 0.06 0.01 62 1014.7
20260830024052 87 213 5.0 11.0 0.00 0.06 0.01 62 1014.7
20260830023553 87 213 3.0 11.0 0.00 0.06 0.01 62 1014.5
20260830023104 88 139 1.0 8.0 0.00 0.06 0.01 62 1014.4
20260830022555 88 138 1.0 11.0 0.00 0.06 0.01 61 1014.3
20260830022053 88 140 2.0 11.0 0.00 0.06 0.01 61 1014.1
20260830021602 88 142 4.0 11.0 0.00 0.06 0.01 60 1014.1
20260830021052 88 118 2.0 7.0 0.00 0.06 0.01 60 1014.1
20260830020553 88 137 2.0 7.0 0.00 0.06 0.01 60 1013.9
20260830020111 88 208 2.0 7.0 0.00 0.06 0.01 60 1013.8
20260830015552 89 157 2.0 9.0 0.00 0.90 0.01 60 1013.8
20260830015052 89 164 3.0 11.0 0.00 0.90 0.01 59 1013.6
20260830014609 89 152 3.0 11.0 0.00 0.90 0.01 59 1013.7
20260830014054 89 182 3.0 10.0 0.00 0.90 0.01 59 1013.5
20260830013553 89 118 2.0 9.0 0.00 0.90 0.01 59 1013.5
20260830013130 89 137 3.0 10.0 0.00 0.90 0.01 59 1013.3
20260830012552 90 161 2.0 11.0 0.00 0.90 0.01 58 1013.3
20260830012052 90 158 4.0 11.0 0.00 0.90 0.01 57 1013.2
20260830011627 91 143 4.0 11.0 0.00 0.90 0.01 55 1013.2
20260830011052 91 117 0.0 3.0 0.00 0.90 0.01 53 1013.2
20260830010552 92 0 0.0 3.0 0.00 0.90 0.01 52 1013.2
20260830005552 93 90 0.0 3.0 0.00 0.90 0.01 52 1013.2
20260830005052 93 0 0.0 0.0 0.00 0.90 0.01 51 1013.2
20260830004602 93 0 0.0 1.0 0.00 0.90 0.01 51 1013.2
20260830004052 94 0 0.0 1.0 0.00 0.90 0.01 51 1013.2